#timestamp,LO_Frequency,Hit,StdDev 
1573970415.2,286046997.5,N
1573970435.0,286046998.9,N
1573970435.9,286046998.9,N
1573970455.7,286046999.5,N
1573970475.6,286046996.5,N
1573970495.4,286046996.6,N
1573970515.3,286046997.3,N
1573970535.1,286046996.6,N
1573970536.0,286046996.6,N
1573970555.8,286046996.9,N
1573970575.7,286046996.6,N
1573970595.5,286046998.3,N
1573970615.3,286046999.1,N
1573970635.2,286046999.2,N
1573970655.0,286046999.1,N
1573970655.9,286046999.1,N
1573970675.8,286046999.2,N
1573970695.6,286046998.4,N
1573970715.4,286046998.7,N
1573970735.3,286046996.5,N
1573970755.1,286046996.8,N
1573970775.8,286046998.4,N
1573970795.7,286046999.1,N
1573970815.5,286046998.9,N
1573970835.4,286046998.4,N
1573970855.2,286046998.7,N
1573970875.0,286047000.7,N
1573970875.9,286047000.7,N
1573970895.8,286047000.4,N
1573970915.6,286046999.9,N
1573970935.4,286047001.0,N
1573970955.3,286047000.9,N
1573970975.1,286046998.6,N
1573970995.9,286047000.7,N
1573971015.7,286047000.4,N
1573971035.5,286047000.9,N
1573971055.4,286047000.7,N
1573971075.2,286047001.0,N
1573971095.1,286046998.4,N
1573971096.0,286046998.4,N
1573971115.8,286046998.1,N
1573971135.6,286047000.4,N
1573971155.5,286046998.3,N
1573971175.3,286047001.1,N
1573971195.1,286047000.9,N
1573971215.9,286047000.7,N
1573971235.7,286047000.8,N
1573971255.6,286046999.3,N
1573971275.4,286047000.9,N
1573971295.2,286046999.0,N
1573971315.1,286047000.3,N
1573971316.0,286047000.3,N
1573971335.8,286046999.9,N
1573971355.7,286047000.2,N
1573971375.5,286047001.2,N
1573971395.3,286047000.6,N
1573971415.2,286047001.2,N
1573971435.0,286047001.1,N
1573971435.9,286047001.1,N
1573971455.8,286047000.6,N
1573971475.6,286046998.4,N
1573971495.4,286047000.8,N
1573971545.3,286046999.0,E
1573971555.2,286046998.7,N
1573971575.1,286046998.2,P
1573971576.0,286046998.2,P
1573971595.8,286046998.7,Y
1573971615.6,286047002.7,P
1573971635.5,286047000.1,N
1573971655.3,286047000.0,N
1573971675.2,286046999.9,N
1573971695.9,286047002.4,N
1573971715.7,286047000.5,N
1573971735.6,286047002.7,N
1573971755.4,286047000.3,N
1573971775.2,286047002.7,N
1573971795.1,286047002.8,N
1573971796.0,286047002.8,N
1573971815.8,286047000.1,N
1573971835.7,286047002.4,N
1573971855.5,286047002.1,N
1573971875.3,286047001.3,N
1573971895.2,286047004.1,N
1573971915.9,286047004.4,N
1573971935.7,286047004.0,N
1573971955.6,286047003.9,N
1573971975.4,286047003.8,N
1573971995.3,286047001.8,N
1573972015.1,286047001.8,N
1573972016.0,286047001.8,N
1573972035.8,286047000.2,N
1573972055.7,286047002.4,N
1573972075.5,286047002.3,N
1573972095.3,286047002.1,N
1573972115.2,286047002.7,N
1573972135.0,286047001.8,N
1573972135.9,286047001.8,N
1573972155.8,286047004.2,Y
1573972175.6,286047001.2,P
1573972195.4,286047001.8,P
1573972215.3,286047001.9,P
1573972235.1,286047000.5,N
1573972255.8,286047004.3,Y
1573972275.7,286047000.9,P
1573972295.5,286047001.2,P
1573972315.4,286047000.0,N
1573972335.2,286047000.4,N
1573972355.0,286047000.5,N
1573972355.9,286047000.5,N
1573972375.8,286047001.8,Y
1573972395.6,286047001.3,P
1573972415.5,286047001.6,P
1573972435.3,286047002.7,P
1573972455.1,286047001.5,N
1573972475.9,286047002.1,Y
1573972495.7,286047000.4,P
1573972515.5,286047000.1,N
1573972535.4,286047000.3,N
1573972555.2,286047000.7,N
1573972575.1,286046998.8,N
1573972576.0,286046998.8,N
1573972595.8,286046999.4,N
1573972615.6,286046998.9,N
1573972635.5,286047000.6,N
1573972655.3,286046998.1,N
1573972675.1,286047001.1,N
1573972695.9,286047000.4,N
1573972715.7,286047000.0,N
1573972735.6,286047001.0,N
1573972755.4,286047000.3,N
1573972775.2,286047001.2,N
1573972795.1,286046999.8,N
1573972796.0,286046999.8,N
1573972815.8,286047001.9,N
1573972835.6,286047004.4,Y
1573972855.5,286047000.5,P
1573972875.3,286047000.8,P
1573972895.2,286047000.3,N
1573972915.9,286047000.6,N
1573972935.7,286047002.4,Y
1573972955.6,286047002.0,P
1573972975.4,286047001.8,N
1573972995.2,286046999.7,N
1573973015.1,286047002.5,N
1573973016.0,286047002.5,N
1573973035.8,286046999.8,N
1573973055.7,286047000.7,N
1573973075.5,286046999.3,N
1573973095.3,286046998.9,N
1573973115.2,286046996.5,N
1573973135.0,286046998.6,N
1573973135.9,286046998.6,N
1573973155.8,286047000.9,N
1573973175.6,286046999.9,N
1573973195.4,286047002.4,N
1573973215.3,286046998.1,N
1573973235.1,286046998.6,N
1573973255.9,286046999.9,N
1573973275.7,286046999.9,N
1573973295.5,286047000.3,N
1573973315.4,286047000.6,N
1573973335.2,286047000.3,N
1573973355.0,286047001.7,N
1573973355.9,286047001.7,N
1573973375.8,286046999.7,N
1573973395.6,286047002.8,N
1573973415.5,286047002.1,N
1573973435.3,286047002.8,N
1573973455.1,286046999.7,N
1573973475.9,286047004.0,N
1573973495.7,286047001.3,N
1573973515.6,286047001.9,N
1573973535.4,286047002.0,N
1573973555.2,286047001.3,N
1573973575.1,286047001.8,N
1573973576.0,286047001.8,N
1573973595.8,286047004.1,N
1573973615.6,286047003.6,N
1573973635.5,286047002.9,N
1573973655.3,286047006.0,Y
1573973675.2,286047003.0,P
1573973695.0,286047003.4,P
1573973695.9,286047003.4,P
1573973715.7,286047003.6,Y
1573973735.6,286047002.4,P
1573973755.4,286047002.5,P
1573973775.3,286047001.3,P
1573973795.1,286047001.3,N
1573973796.0,286047001.3,N
1573973815.8,286047003.6,Y
1573973835.7,286047002.3,P
1573973855.5,286047002.6,P
1573973875.3,286047002.8,P
1573973895.2,286047000.1,N
1573973915.0,286047002.7,N
1573973915.9,286047002.7,N
1573973935.8,286047002.7,Y
1573973955.6,286046998.3,P
1573973975.4,286046998.9,N
1573973995.3,286046998.8,N
